| time (UTC) | temp C | wind direction | speed KPH | gust KPH | rain 1hr cm | rain 24hr cm | rain mn cm | humidity % | barometer mb |
| 20260505025104 | 13 | 185 | 3.2 | 12.9 | 0.00 | 0.00 | 0.00 | 64 | 1013.0 |
| 20260505024104 | 13 | 212 | 4.8 | 14.5 | 0.00 | 0.00 | 0.00 | 63 | 1013.2 |
| 20260505023103 | 13 | 238 | 4.8 | 14.5 | 0.00 | 0.00 | 0.00 | 62 | 1013.2 |
| 20260505022105 | 13 | 175 | 4.8 | 9.7 | 0.00 | 0.00 | 0.00 | 61 | 1013.2 |
| 20260505021103 | 13 | 199 | 1.6 | 9.7 | 0.00 | 0.00 | 0.00 | 60 | 1013.2 |
| 20260505015106 | 13 | 147 | 3.2 | 9.7 | 0.00 | 0.00 | 0.00 | 57 | 1013.2 |
| 20260505014103 | 13 | 210 | 4.8 | 9.7 | 0.00 | 0.00 | 0.00 | 56 | 1013.2 |
| 20260505013106 | 13 | 225 | 4.8 | 12.9 | 0.00 | 0.00 | 0.00 | 54 | 1013.2 |
| 20260505012104 | 14 | 145 | 1.6 | 9.7 | 0.00 | 0.00 | 0.00 | 54 | 1013.2 |
| 20260505010104 | 15 | 161 | 4.8 | 11.3 | 0.00 | 0.00 | 0.00 | 52 | 1012.8 |
| 20260505005104 | 15 | 165 | 4.8 | 11.3 | 0.00 | 0.00 | 0.00 | 51 | 1012.7 |
| 20260505004103 | 15 | 166 | 3.2 | 9.7 | 0.00 | 0.00 | 0.00 | 49 | 1012.5 |
| 20260505003105 | 15 | 223 | 4.8 | 12.9 | 0.00 | 0.00 | 0.00 | 47 | 1012.5 |
| 20260505002105 | 16 | 180 | 4.8 | 19.3 | 0.00 | 0.00 | 0.00 | 46 | 1012.2 |
| 20260505001105 | 16 | 205 | 9.7 | 24.1 | 0.00 | 0.00 | 0.00 | 45 | 1011.8 |
| 20260505000104 | 16 | 222 | 8.0 | 24.1 | 0.00 | 0.00 | 0.00 | 45 | 1011.8 |
| 20260504235104 | 16 | 213 | 3.2 | 14.5 | 0.00 | 0.00 | 0.00 | 45 | 1011.8 |
| 20260504234104 | 16 | 180 | 8.0 | 12.9 | 0.00 | 0.00 | 0.00 | 44 | 1011.8 |
| 20260504233103 | 17 | 209 | 6.4 | 19.3 | 0.00 | 0.00 | 0.00 | 43 | 1011.8 |
| 20260504232104 | 17 | 187 | 8.0 | 19.3 | 0.00 | 0.00 | 0.00 | 42 | 1011.8 |
| 20260504231104 | 17 | 215 | 4.8 | 16.1 | 0.00 | 0.00 | 0.00 | 41 | 1011.7 |
| 20260504230104 | 18 | 176 | 8.0 | 14.5 | 0.00 | 0.00 | 0.00 | 41 | 1011.5 |
| 20260504225104 | 18 | 99 | 8.0 | 27.4 | 0.00 | 0.00 | 0.00 | 39 | 1011.5 |
| 20260504224105 | 18 | 209 | 12.9 | 24.1 | 0.00 | 0.00 | 0.00 | 38 | 1011.5 |
| 20260504223103 | 20 | 214 | 11.3 | 14.5 | 0.00 | 0.00 | 0.00 | 37 | 1011.5 |
| 20260504222104 | 20 | 199 | 16.1 | 32.2 | 0.00 | 0.00 | 0.00 | 35 | 1011.5 |
| 20260504221104 | 20 | 160 | 9.7 | 27.4 | 0.00 | 0.00 | 0.00 | 34 | 1011.5 |
| 20260504215104 | 20 | 119 | 9.7 | 19.3 | 0.00 | 0.00 | 0.00 | 33 | 1011.5 |
| 20260504214105 | 21 | 155 | 11.3 | 16.1 | 0.00 | 0.00 | 0.00 | 33 | 1011.8 |
| 20260504213106 | 21 | 173 | 11.3 | 19.3 | 0.00 | 0.00 | 0.00 | 30 | 1011.5 |
| 20260504212103 | 22 | 237 | 11.3 | 19.3 | 0.00 | 0.00 | 0.00 | 28 | 1011.5 |
| 20260504211105 | 22 | 202 | 4.8 | 19.3 | 0.00 | 0.00 | 0.00 | 27 | 1011.5 |
| 20260504205105 | 22 | 204 | 3.2 | 12.9 | 0.00 | 0.00 | 0.00 | 28 | 1011.1 |
| 20260504202103 | 22 | 247 | 8.0 | 19.3 | 0.00 | 0.00 | 0.00 | 26 | 1011.3 |
| 20260504201104 | 22 | 209 | 8.0 | 22.5 | 0.00 | 0.00 | 0.00 | 27 | 1011.5 |
| 20260504195105 | 22 | 204 | 8.0 | 25.7 | 0.00 | 0.00 | 0.00 | 25 | 1011.3 |
| 20260504193106 | 22 | 178 | 6.4 | 24.1 | 0.00 | 0.00 | 0.00 | 26 | 1011.3 |
| 20260504192103 | 21 | 200 | 12.9 | 22.5 | 0.00 | 0.00 | 0.00 | 26 | 1011.1 |
| 20260504191106 | 21 | 211 | 9.7 | 16.1 | 0.00 | 0.00 | 0.00 | 27 | 1011.5 |
| 20260504185104 | 21 | 222 | 11.3 | 32.2 | 0.00 | 0.00 | 0.00 | 26 | 1011.5 |
| 20260504184106 | 21 | 203 | 9.7 | 32.2 | 0.00 | 0.00 | 0.00 | 26 | 1011.5 |
| 20260504183105 | 21 | 178 | 9.7 | 35.4 | 0.00 | 0.00 | 0.00 | 26 | 1011.5 |
| 20260504182105 | 21 | 211 | 16.1 | 25.7 | 0.00 | 0.00 | 0.00 | 27 | 1011.6 |
| 20260504180104 | 21 | 265 | 14.5 | 22.5 | 0.00 | 0.00 | 0.00 | 25 | 1011.8 |
| 20260504175105 | 21 | 250 | 9.7 | 29.0 | 0.00 | 0.00 | 0.00 | 27 | 1011.8 |
| 20260504174104 | 21 | 237 | 14.5 | 37.0 | 0.00 | 0.00 | 0.00 | 27 | 1011.8 |
| 20260504173104 | 21 | 253 | 16.1 | 29.0 | 0.00 | 0.00 | 0.00 | 26 | 1011.6 |
| 20260504172104 | 20 | 262 | 11.3 | 24.1 | 0.00 | 0.00 | 0.00 | 28 | 1011.8 |
| 20260504170104 | 20 | 167 | 14.5 | 25.7 | 0.00 | 0.00 | 0.00 | 27 | 1011.8 |
| 20260504160106 | 19 | 242 | 17.7 | 40.2 | 0.00 | 0.00 | 0.00 | 28 | 1012.5 |
| 20260504151105 | 19 | 264 | 11.3 | 24.1 | 0.00 | 0.00 | 0.00 | 31 | 1013.2 |
| 20260504150104 | 18 | 165 | 9.7 | 19.3 | 0.00 | 0.00 | 0.00 | 32 | 1013.2 |
| 20260504141104 | 18 | 257 | 8.0 | 19.3 | 0.00 | 0.03 | 0.00 | 35 | 1013.2 |
| 20260504140104 | 17 | 257 | 9.7 | 19.3 | 0.00 | 0.05 | 0.00 | 34 | 1013.2 |
| 20260504130104 | 15 | 264 | 6.4 | 14.5 | 0.00 | 0.08 | 0.00 | 42 | 1013.2 |
| 20260504120103 | 11 | 258 | 6.4 | 12.9 | 0.00 | 0.08 | 0.00 | 50 | 1012.8 |
| 20260504110104 | 8 | 268 | 1.6 | 12.9 | 0.00 | 0.08 | 0.00 | 54 | 1012.2 |
| 20260504100104 | 8 | 194 | 3.2 | 12.9 | 0.00 | 0.08 | 0.00 | 55 | 1011.8 |
| 20260504090104 | 7 | 292 | 3.2 | 11.3 | 0.00 | 0.08 | 0.00 | 56 | 1011.5 |
| 20260504081106 | 6 | 181 | 0.0 | 3.2 | 0.00 | 0.08 | 0.00 | 57 | 1011.5 |
| 20260504080104 | 6 | 202 | 0.0 | 1.6 | 0.00 | 0.08 | 0.00 | 60 | 1011.5 |
| 20260504070104 | 6 | 270 | 0.0 | 0.0 | 0.00 | 0.08 | 0.00 | 64 | 1011.1 |
| 20260504050105 | 6 | 270 | 3.2 | 3.2 | 0.00 | 0.08 | 0.00 | 57 | 1011.1 |
| 20260504045104 | 5 | 284 | 1.6 | 3.2 | 0.00 | 0.08 | 0.00 | 60 | 1011.1 |
| 20260504044104 | 5 | 293 | 4.8 | 9.7 | 0.00 | 0.08 | 0.00 | 60 | 1011.1 |
| 20260504042103 | 5 | 228 | 1.6 | 3.2 | 0.00 | 0.08 | 0.00 | 59 | 1010.8 |
| 20260504041106 | 5 | 292 | 1.6 | 3.2 | 0.00 | 0.08 | 0.00 | 61 | 1010.8 |
| 20260504040105 | 5 | 315 | 0.0 | 3.2 | 0.00 | 0.08 | 0.00 | 61 | 1010.5 |
| 20260504034104 | 4 | 284 | 3.2 | 3.2 | 0.00 | 0.08 | 0.08 | 63 | 1010.5 |
| 20260504033106 | 3 | 270 | 3.2 | 3.2 | 0.00 | 0.08 | 0.08 | 65 | 1010.5 |
| 20260504031105 | 2 | 292 | 0.0 | 3.2 | 0.00 | 0.08 | 0.08 | 75 | 1010.1 |
| 20260504030103 | 2 | 292 | 0.0 | 0.0 | 0.00 | 0.08 | 0.08 | 76 | 1010.1 |